Location: Recife
(8.0585°S, 34.8848°W)
Time: 10:01:21
(UTC-03:00)

Explorer 7 - Pass Details

Date: 16 April 2026
Orbit: 427 x 536 km, 50.2° (Epoch: 14 May)

Event Time Altitude Azimuth Distance (km) Brightness Sun altitude
Rises 13:12:03 0° 251° (WSW) 2,573 10.5 56.5°
Reaches altitude 10° 13:15:20 10° 281° (W) 1,713 10.0 55.8°
Maximum altitude 13:17:00 12° 307° (NW) 1,574 10.0 55.4°
Drops below altitude 10° 13:18:42 10° 332° (NNW) 1,732 10.0 55.1°
Sets 13:22:05 0° 2° (N) 2,635 10.5 54.4°
